Regional Weather Roundup
Issued by NWS

Home | Current Version | Previous Version | Text Only | Print | Product List | Glossary On
Versions: 1 2 3 4 5 6 7 8 9 10 11 12 13 14 15 16 17 18 19 20 21 22 23 24 25 26 27 28 29 30 31 32 33 34 35 36 37 38 39 40 41 42 43 44 45 46 47 48 49 50
000
ASUS43 KMKX 080500
RWRWI

WISCONSIN REGIONAL WEATHER ROUNDUP
NATIONAL WEATHER SERVICE MILWAUKEE/SULLIVAN WI
1200 AM CDT WED JUL 08 2015

NOTE: "FAIR" INDICATES FEW OR NO CLOUDS BELOW 12,000 FEET WITH NO
SIGNIFICANT WEATHER AND/OR OBSTRUCTIONS TO VISIBILITY.

WIZ001-002-006>008-014>016-023>028-080600-
NORTHWEST WISCONSIN

CITY           SKY/WX    TMP DP  RH WIND       PRES   REMARKS
SUPERIOR ARPT  CLEAR     55  50  85 SW6       30.09S
ASHLAND        CLEAR     47  47 100 CALM      30.11S
HAYWARD        CLEAR     49  47  93 CALM      30.13S
SIREN          CLEAR     51  49  92 CALM      30.12S
CUMBERLAND     CLEAR     52  50  93 CALM      30.13S
RICE LAKE      CLEAR     53  51  93 CALM      30.15R
CHETEK         NOT AVBL
LADYSMITH      CLEAR     51  48  92 CALM      30.15S
EAU CLAIRE     CLEAR     53  50  89 CALM      30.12S
MENOMONIE      CLEAR     58  53  82 CALM      30.13R
NEW RICHMOND   PTCLDY    55  54  96 CALM      30.13S
OSCEOLA        CLEAR     55  55 100 CALM      30.15S
$$

WIZ003>005-009-010-017-018-080600-
NORTH CENTRAL WISCONSIN

CITY           SKY/WX    TMP DP  RH WIND       PRES   REMARKS
MANITOWISH WTR CLEAR     44  44 100 CALM      30.13S FOG
ARBOR VITAE    CLEAR     49  47  93 CALM      30.13S
WOODRUFF       CLEAR     49  47  93 CALM      30.13S
RHINELANDER    CLEAR     46  43  89 CALM      30.14S
EAGLE RIVER    PTCLDY    45  45 100 CALM      30.13S FOG
LAND O LAKES   CLEAR     43  43  99 CALM      30.14S
PHILLIPS       CLEAR     47  47 100 CALM      30.13S
TOMAHAWK       CLEAR     45  44  96 CALM      30.15R
MEDFORD        CLEAR     49  46  88 CALM      30.14R
MERRILL        CLEAR     47  47  99 CALM      30.15R
$$

WIZ029-030-035-036-043>047-080600-
CENTRAL WISCONSIN

CITY           SKY/WX    TMP DP  RH WIND       PRES   REMARKS
WAUSAU         CLEAR     54  50  86 CALM      30.12R
MOSINEE        CLEAR     55  46  71 NE3       30.14R
MARSHFIELD     CLEAR     56  48  74 CALM      30.13R
STEVENS POINT  CLEAR     50  49  95 CALM      30.13R
WAUPACA        CLEAR     54  53  96 CALM      30.13R
WAUTOMA        NOT AVBL
WISC RAPIDS    CLEAR     52  49  89 CALM      30.14R
CAMP DOUGLAS   NOT AVBL
$$

WIZ011>013-019>022-031-037>040-048>050-080600-
NORTHEAST WISCONSIN

CITY           SKY/WX    TMP DP  RH WIND       PRES   REMARKS
ANTIGO         CLEAR     48  47  98 CALM      30.14S
SHAWANO        CLEAR     56  52  87 CALM      30.13R
OCONTO         CLEAR     49  49 100 CALM      30.12R
STURGEON BAY   CLEAR     52  45  76 S3        30.15R
GREEN BAY      CLEAR     54  50  86 CALM      30.14R
MANITOWOC      NOT AVBL
APPLETON       CLEAR     55  50  82 SE5       30.13R
CLINTONVILLE   CLEAR     52  50  93 CALM      30.12R
OSHKOSH        CLEAR     54  49  83 SE3       30.12R
$$

WIZ032>034-041-042-053>061-080600-
SOUTHWEST WISCONSIN

CITY           SKY/WX    TMP DP  RH WIND       PRES   REMARKS
LA CROSSE      CLOUDY    63  55  75 E3        30.11S
SPARTA         CLOUDY    57  54  89 NE3       30.13R
VIROQUA        CLOUDY    60  55  82 CALM      30.13S
BOSCOBEL       PTCLDY    55  53  93 CALM      30.12S
PRAIRIE DU CHI PTCLDY    54  49  84 CALM      30.11F
PLATTEVILLE    MOCLDY    57  51  81 NE3       30.12S
$$

WIZ056-057-062-063-064-067-068-080600-
SOUTH CENTRAL WISCONSIN

CITY           SKY/WX    TMP DP  RH WIND       PRES   REMARKS
REEDSBURG      CLOUDY    60  56  88 CALM      30.12R
BARABOO/DELLS  CLOUDY    60  54  81 CALM      30.12R
LONE ROCK      NOT AVBL
MINERAL POINT  PTCLDY    57  48  72 CALM      30.12S
MADISON        PTCLDY    58  53  84 N5        30.11S
MIDDLETON      PTCLDY    59  57  94 CALM      30.12S
WATERTOWN      CLEAR     52  52 100 CALM      30.11S
MONROE         PTCLDY    59  50  72 CALM      30.12R
JANESVILLE     PTCLDY    55  52  88 CALM      30.12R
$$

WIZ051-052-058>065-066-070>072-080600-
SOUTHEAST WISCONSIN

CITY           SKY/WX    TMP DP  RH WIND       PRES   REMARKS
MILWAUKEE      PTCLDY    55  45  68 N5        30.12R
WAUKESHA       CLEAR     50  45  81 CALM      30.13S
MILWAUKEE/TIMM CLEAR     54  45  71 N3        30.13R
RACINE         CLEAR     55  47  74 CALM      30.14R
BURLINGTON     CLEAR     47  47  97 CALM      30.12S
KENOSHA        PTCLDY    54  47  77 N6        30.12R
FOND DU LAC    CLEAR     53  50  89 SE3       30.13S
SHEBOYGAN      CLEAR     50  48  93 CALM      30.13R
WEST BEND      CLEAR     50  46  87 CALM      30.13R
JUNEAU         CLEAR     53  49  86 CALM      30.14R
$$

LSZ147-162-080600-
LAKE SUPERIOR

STATION/POSITION TIME  TEMP    WIND        PRES    WAVE
                       AIR SEA DIR/SP/G            HT/PER
                 (UTC) (F)     (DEG/KT/KT) (MB)    (FT/S)
W MID LAKE BUOY  0350   50 40  220/  8/  8 1019.3R   1
DEVILS ISLAND    0400   63     180/  8/ 10 1019.1R
PORT WING        0440   58     130/  3/  5 1019.0S
SAXON HARBOR     0400   54     190/  5/  8 1019.0
$$

LMZ867-665-643>646-080600-
LAKE MICHIGAN

STATION/POSITION TIME  TEMP    WIND        PRES    WAVE
                       AIR SEA DIR/SP/G            HT/PER
                 (UTC) (F)     (DEG/KT/KT) (MB)    (FT/S)
CHAMBERS ISLAND  0400   62      50/  5/  6 1019.6R
S GREEN BAY BUOY 0400   62 68  130/  8/ 10 1021.1R
N MID LAKE BUOY  0350   54 51   CALM  /  2 1019.5R   1/ 4
NORTHPORT PIER   0400   56        CALM     1019.6R
SISTER BAY       0414   53        CALM       N/A
ALGOMA LAKESHORE 0426             CALM       N/A
KEWAUNEE LAKESHO 0400   53     310/  1/  3 1019.4R
SHEBOYGAN LAKESH 0400   59     310/  2/  3 1020.4R
PORT WASHINGTON  0400   58     330/  5/  7 1020.3S
ATWATER BUOY     0400   59 59  350/  8/ 10 1020.7R
MILWAUKEE LAKESH 0400   59     350/  5/  7   N/A
KENOSHA   LAKESH 0400   58     350/  6/  8 1019.3F
$$

TC  - TEMPERATURE IN CELSIUS
VSB - VISIBILITY IN STATUTE MILES
WCI - WIND CHILL INDEX
HX  - HEAT INDEX




USA.gov is the U.S. government's official web portal to all federal, state and local government web resources and services.